Theta_e
310 308 307 306 304 302 301 300 299 299 298 297 297 296 295 294 293 292 292 292 292 292 292 292 291 291 292 291 291 291 291 291
311 308 307 306 304 302 301 300 299 298 297 296 296 295 295 293 293 292 292 291 292 292 291 291 291 291 291 291 291 290 290 290
311 309 307 307 304 302 301 300 299 297 296 295 295 294 294 293 292 292 292 291 291 291 291 291 291 290 291 291 290 290 289 289
312 309 308 306 304 302 301 300 298 296 295 295 294 294 293 293 292 292 292 292 291 291 291 291 290 290 290 290 289 288 287 288
313 310 309 307 304 301 300 299 297 295 294 294 293 293 293 292 292 292 292 292 291 291 291 290 290 289 289 289 288 286 285 286
315 311 309 306 303 302 300 298 296 295 294 293 292 292 292 292 292 292 291 291 291 291 290 290 290 289 289 289 288 286 285 285
314 310 308 305 303 301 299 297 295 294 293 292 291 291 291 292 291 291 291 291 291 291 290 290 289 288 288 288 286 285 284 284
314 310 307 304 302 301 298 297 295 294 293 292 291 291 291 291 290 290 290 290 290 290 290 289 288 287 288 287 285 285 285 284
313 309 307 305 302 300 297 296 295 293 292 291 290 290 290 290 289 289 289 289 289 289 288 288 287 287 288 286 285 285 286 285
313 309 307 304 301 299 297 295 294 293 292 291 290 289 289 289 288 288 288 288 288 288 287 286 287 287 287 285 285 286 286 285
312 308 306 303 301 297 296 294 293 293 292 290 289 289 288 288 287 287 287 287 287 286 286 286 286 286 285 284 285 286 286 285
311 308 305 302 299 297 295 294 294 293 291 290 289 288 287 286 286 286 286 286 285 285 285 285 286 285 284 284 284 284 284 285
309 306 303 301 298 296 295 294 294 292 290 289 288 287 286 286 286 285 285 285 285 285 285 285 285 284 283 283 284 283 284 284
308 304 302 301 297 295 295 294 293 291 289 288 288 287 286 286 285 285 285 285 285 285 285 285 283 283 283 283 283 283 284 284
307 304 302 299 297 296 295 294 292 289 288 288 287 287 286 285 285 285 284 284 284 284 285 285 283 283 282 282 282 283 284 284
306 305 301 298 297 295 294 293 290 288 288 287 287 286 285 285 285 284 284 284 284 284 285 284 283 282 281 281 282 282 284 284
305 303 300 298 297 295 293 292 288 288 288 287 286 286 285 285 285 284 284 284 284 284 285 284 283 283 281 281 281 282 284 284
305 302 300 298 296 294 293 290 287 288 287 286 286 285 285 285 285 284 284 284 284 284 285 284 283 283 281 281 281 283 284 284
304 301 299 296 295 293 290 288 287 287 287 286 286 285 285 285 284 284 284 284 284 284 285 284 283 282 281 280 280 283 284 284
Wind_Speed
15 12 10 8 6 5 5 6 7 6 7 8 8 8 8 9 10 12 14 15 16 17 17 18 20 19 19 21 21 22 21 24
15 12 10 8 6 5 5 5 6 7 8 9 9 10 9 9 10 11 12 14 15 16 18 18 19 19 19 20 21 21 20 23
15 14 12 9 6 5 4 5 5 7 7 8 9 8 9 9 10 10 11 13 15 16 17 18 19 19 18 20 20 21 19 20
15 15 13 9 7 5 4 4 4 6 8 8 10 8 8 10 11 11 13 13 14 15 17 17 18 18 19 20 20 19 18 18
17 17 14 11 8 6 5 4 4 6 8 9 10 11 11 11 11 12 12 12 13 14 16 16 17 18 18 19 18 17 14 16
16 17 14 11 9 7 5 4 4 6 8 10 11 11 11 10 11 12 12 12 12 12 16 16 17 18 18 18 19 18 14 14
17 17 14 11 9 7 6 4 4 6 8 9 10 11 10 12 13 13 14 13 13 13 17 17 17 18 19 18 18 16 16 14
15 18 15 13 10 8 6 4 4 6 8 9 10 10 10 11 13 13 14 14 14 16 17 18 18 19 19 18 18 15 15 14
16 17 16 13 10 8 6 4 4 6 7 8 9 10 11 11 12 13 13 14 14 16 17 18 18 19 19 17 17 17 14 16
15 17 15 13 11 8 6 4 5 6 7 8 9 10 11 12 12 13 13 13 15 16 17 18 18 19 19 19 19 19 15 17
14 17 15 13 11 9 7 5 5 6 8 8 9 10 11 12 12 13 13 14 15 16 17 18 19 20 19 20 21 20 19 17
14 17 15 13 11 9 7 5 5 6 8 8 9 11 12 12 12 13 14 14 15 16 17 18 19 20 19 22 23 21 20 16
15 16 15 13 10 8 6 5 5 6 7 7 9 11 11 12 13 14 14 15 15 15 17 18 19 19 18 24 24 23 20 18
14 15 13 12 9 7 6 4 4 6 6 7 9 11 12 12 12 13 14 15 15 16 17 18 18 19 19 25 25 22 19 17
13 13 12 12 10 7 6 5 5 5 6 8 9 10 10 11 12 14 15 15 15 16 16 17 17 17 20 28 27 21 19 17
13 12 13 12 10 8 6 5 5 5 7 8 8 9 10 11 13 14 15 15 15 15 16 16 17 16 23 29 28 21 20 18
13 13 13 12 10 8 6 5 5 5 7 6 7 9 11 12 14 15 16 15 15 15 16 17 18 15 25 29 26 23 19 17
13 13 13 11 10 9 7 6 5 5 6 6 8 10 11 13 14 15 16 16 15 15 16 18 19 17 26 29 28 20 19 17
13 14 14 13 11 9 8 7 6 5 5 7 8 10 12 13 14 16 17 16 15 15 16 18 19 19 26 29 29 20 19 17
Wind_Direction
176 175 157 147 121 99 81 56 32 11 2 357 353 353 357 357 360 2 1 359 356 353 350 349 348 347 348 349 348 348 343 344
174 174 166 154 132 113 82 58 31 13 6 360 354 354 355 357 359 359 357 356 353 351 350 348 349 347 348 348 347 347 347 346
180 182 181 180 145 129 99 61 35 20 7 360 348 348 350 355 357 354 353 352 351 351 350 348 348 345 348 348 349 347 344 346
185 192 190 178 160 140 105 67 43 23 7 1 359 356 354 360 354 350 348 347 348 350 349 348 347 346 347 348 350 349 341 341
186 194 192 190 159 138 112 76 47 27 15 11 6 3 2 356 349 347 341 342 343 347 348 347 347 345 346 348 347 343 338 334
188 189 190 180 164 143 118 98 56 31 21 17 9 8 358 351 351 343 343 342 344 346 347 345 346 345 342 344 343 340 335 328
181 180 177 171 161 140 128 103 59 31 22 17 14 7 357 353 352 345 346 343 344 350 345 345 343 343 340 342 338 334 337 333
172 173 177 171 164 148 133 102 66 34 23 17 13 7 0 352 351 348 340 344 346 348 343 343 343 340 336 342 334 330 333 332
174 171 183 170 161 146 133 106 68 36 23 16 13 8 3 357 350 345 344 344 344 344 343 341 342 339 337 341 332 328 327 330
169 173 170 163 159 149 129 101 68 38 22 15 14 8 4 354 346 345 346 346 343 343 344 343 343 339 341 341 335 327 323 330
166 165 162 160 151 137 119 90 65 37 22 19 15 8 2 352 348 350 349 350 347 345 346 346 344 341 344 340 334 337 332 330
161 158 159 153 147 135 119 88 57 34 23 21 16 10 1 355 355 352 352 352 348 348 348 347 344 344 343 339 341 337 333 331
156 152 155 149 143 131 111 85 57 33 29 25 18 10 4 360 359 355 354 353 351 350 350 348 348 343 342 346 341 338 333 332
148 150 155 147 137 130 119 88 59 34 35 30 23 12 6 4 358 356 356 353 354 353 352 350 353 345 350 346 343 335 333 333
152 152 152 145 143 136 115 88 51 38 38 35 26 11 3 1 358 360 358 356 355 355 352 356 350 346 356 348 345 335 334 335
159 159 150 147 142 130 113 95 63 54 45 34 18 6 3 1 2 360 357 358 358 355 352 359 351 352 356 349 347 336 333 337
163 152 151 149 141 132 116 93 74 63 52 34 14 8 6 3 1 359 359 359 0 356 355 2 357 1 358 353 350 336 336 345
158 153 149 143 133 133 116 97 87 66 49 29 17 11 7 5 1 1 1 2 359 357 359 3 1 4 1 356 349 345 346 354
149 150 138 132 132 119 117 111 96 67 46 29 19 10 9 7 5 5 4 3 360 360 2 5 3 6 5 360 354 356 355 2